Meath Environmental Platform

Observations

Time Sensor AQI SAQ Temp °C Hum % Pres Pa CO μg/m³ H₂S μg/m³ NO μg/m³ NO₂ μg/m³ O₃ μg/m³ SO₂ μg/m³ CO₂e PPM VOC PPM PM1 μg/m³ PM2.5 μg/m³ PM4 μg/m³ PM10 μg/m³ TPS µm
Tuesday 11 August 2026
23:00 Trim Patrick St 3 21.5 53 69,345 0 10.58 1.28 28.55 44.76 4.51 4.57 9.27 10.19
22:59 Trim Patrick St 3 21.5 54 69,334 0 10.39 1.26 23.22 45.61 4.59 3.71 9.16 10.08
22:58 Trim Patrick St 3 21.5 54 69,343 0 11.29 1.27 27.37 50.27 4.44 3.71 8.4 9.25
22:57 Trim Patrick St 3 21.5 54 69,330 0 11.5 1.27 22.86 46.45 4.77 3.71 9.19 10.11
22:56 Trim Patrick St 3 21.5 54 69,316 0 11.69 1.26 26.53 45.07 4.8 3.71 8.41 9.25
22:55 Trim Patrick St 3 21.6 53 69,326 0 12.42 1.28 32.9 49.78 5.22 3.71 8.52 9.38
22:54 Trim Patrick St 3 21.5 54 69,304 0 12.32 1.26 33.92 55.14 5.43 3.71 7.7 8.47
22:53 Trim Patrick St 3 21.6 52 69,312 0 11.47 1.27 27.92 48.23 4.58 4.57 9.32 10.26
22:52 Trim Market St 2 22.4 50 57,984 0 0 1.28 19.93 60.65 0 0.71 3.48 3.8
22:52 Trim Patrick St 3 21.6 54 69,288 0 9.57 1.25 31.33 49.32 5.03 3.71 8.46 9.31
22:51 Trim Market St 2 22.4 50 58,167 0 0 1.29 28.4 56.06 0 1.43 4 4.54
22:51 Trim Patrick St 3 21.6 53 69,288 0 9.55 1.25 24.01 45.27 4.78 3.71 9.25 10.17
22:50 Trim Market St 2 22.4 50 58,418 0 0 1.3 13.15 59.8 0 1.43 4.01 6.03
22:50 Trim Patrick St 3 21.6 53 69,292 0 10.66 1.24 25.91 46.54 4.86 4.57 9.98 10.98
22:49 Trim Market St 2 22.4 50 58,396 0 0 1.3 22.58 55.8 0 0.71 4.01 4.54
22:49 Trim Patrick St 3 21.6 53 69,290 0 11.58 1.25 28.43 47.16 4.93 3.71 8.47 9.31
22:48 Trim Patrick St 3 21.7 52 69,262 0 12.45 1.29 25.69 47.86 4.83 2.86 8.56 9.41
22:47 Trim Market St 2 22.5 50 58,671 0 0 1.29 18.46 58.79 0 0.71 3.5 5.29
22:47 Trim Patrick St 3 21.6 54 69,256 0 12.95 1.24 32.15 52.61 5.43 3.71 8.45 9.3
22:46 Trim Market St 2 22.5 50 58,781 0 0 1.3 22.87 57.82 0 1.43 4.02 4.54